| time (UTC) | temp F | wind direction | speed knots | gust knots | rain 1hr in | rain 24hr in | rain mn in | humidity % | barometer mb |
| 20260509213049 | 91 | 186 | 0.9 | 4.3 | 0.00 | 0.00 | 0.00 | 50 | 1012.4 |
| 20260509211546 | 89 | 0 | 0.9 | 7.0 | 0.00 | 0.00 | 0.00 | 53 | 1012.5 |
| 20260509210052 | 89 | 225 | 1.7 | 7.0 | 0.00 | 0.00 | 0.00 | 56 | 1012.9 |
| 20260509204557 | 88 | 200 | 0.0 | 6.1 | 0.00 | 0.00 | 0.00 | 57 | 1013.2 |
| 20260509203052 | 88 | 0 | 0.0 | 7.8 | 0.00 | 0.00 | 0.00 | 56 | 1013.4 |
| 20260509201556 | 87 | 0 | 0.0 | 7.0 | 0.00 | 0.00 | 0.00 | 60 | 1013.4 |
| 20260509194555 | 86 | 0 | 0.9 | 9.6 | 0.00 | 0.00 | 0.00 | 61 | 1013.8 |
| 20260509193051 | 85 | 0 | 1.7 | 10.4 | 0.00 | 0.00 | 0.00 | 62 | 1013.9 |
| 20260509191548 | 85 | 140 | 0.9 | 3.5 | 0.00 | 0.00 | 0.00 | 63 | 1014.2 |
| 20260509190101 | 84 | 0 | 0.9 | 9.6 | 0.00 | 0.00 | 0.00 | 62 | 1014.5 |
| 20260509184544 | 85 | 0 | 0.0 | 7.8 | 0.00 | 0.00 | 0.00 | 64 | 1014.7 |
| 20260509183049 | 84 | 155 | 1.7 | 9.6 | 0.00 | 0.00 | 0.00 | 65 | 1015.0 |
| 20260509181553 | 84 | 131 | 0.9 | 8.7 | 0.00 | 0.00 | 0.00 | 66 | 1015.1 |
| 20260509180053 | 82 | 117 | 5.2 | 10.4 | 0.00 | 0.00 | 0.00 | 67 | 1015.2 |
| 20260509174547 | 82 | 113 | 2.6 | 10.4 | 0.00 | 0.00 | 0.00 | 70 | 1015.4 |
| 20260509173047 | 82 | 63 | 0.9 | 9.6 | 0.00 | 0.00 | 0.00 | 68 | 1015.6 |
| 20260509171547 | 82 | 127 | 4.3 | 9.6 | 0.00 | 0.00 | 0.00 | 70 | 1015.6 |
| 20260509170042 | 81 | 140 | 1.7 | 6.1 | 0.00 | 0.00 | 0.00 | 69 | 1015.7 |
| 20260509164555 | 84 | 129 | 0.9 | 5.2 | 0.00 | 0.00 | 0.00 | 68 | 1015.5 |
| 20260509163051 | 82 | 342 | 3.5 | 7.8 | 0.00 | 0.00 | 0.00 | 72 | 1015.4 |
| 20260509161558 | 82 | 324 | 2.6 | 7.0 | 0.00 | 0.00 | 0.00 | 72 | 1015.3 |
| 20260509160051 | 83 | 0 | 2.6 | 6.1 | 0.00 | 0.00 | 0.00 | 70 | 1015.5 |
| 20260509154555 | 81 | 254 | 2.6 | 6.1 | 0.00 | 0.00 | 0.00 | 76 | 1015.4 |
| 20260509153056 | 80 | 338 | 2.6 | 5.2 | 0.00 | 0.00 | 0.00 | 76 | 1015.5 |
| 20260509151552 | 81 | 332 | 1.7 | 4.3 | 0.00 | 0.00 | 0.00 | 77 | 1015.2 |
| 20260509150054 | 81 | 278 | 2.6 | 7.0 | 0.00 | 0.00 | 0.00 | 79 | 1015.2 |
| 20260509144553 | 79 | 248 | 5.2 | 7.0 | 0.00 | 0.00 | 0.00 | 80 | 1014.8 |
| 20260509143055 | 78 | 248 | 4.3 | 7.0 | 0.00 | 0.00 | 0.00 | 81 | 1014.7 |
| 20260509141549 | 77 | 276 | 3.5 | 7.0 | 0.00 | 0.00 | 0.00 | 83 | 1014.7 |
| 20260509140059 | 76 | 297 | 4.3 | 8.7 | 0.00 | 0.00 | 0.00 | 85 | 1014.7 |
| 20260509134607 | 74 | 279 | 5.2 | 10.4 | 0.00 | 0.00 | 0.00 | 87 | 1014.7 |
| 20260509133050 | 73 | 257 | 3.5 | 8.7 | 0.00 | 0.00 | 0.00 | 93 | 1014.4 |
| 20260509131551 | 71 | 286 | 1.7 | 5.2 | 0.00 | 0.00 | 0.00 | 98 | 1014.5 |
| 20260509130048 | 68 | 140 | 0.9 | 3.5 | 0.00 | 0.00 | 0.00 | 98 | 1013.8 |
| 20260509124549 | 67 | 123 | 2.6 | 6.1 | 0.00 | 0.00 | 0.00 | 98 | 1013.5 |
| 20260509123052 | 65 | 143 | 0.9 | 4.3 | 0.00 | 0.00 | 0.00 | 98 | 1013.5 |
| 20260509121549 | 65 | 150 | 7.0 | 13.0 | 0.00 | 0.00 | 0.00 | 98 | 1013.2 |
| 20260509120052 | 65 | 0 | 0.0 | 3.5 | 0.00 | 0.00 | 0.00 | 98 | 1014.1 |
| 20260509114548 | 65 | 165 | 0.9 | 5.2 | 0.00 | 0.00 | 0.00 | 97 | 1013.9 |
| 20260509113053 | 65 | 140 | 7.0 | 9.6 | 0.00 | 0.00 | 0.00 | 97 | 1014.0 |
| 20260509111551 | 65 | 142 | 3.5 | 6.1 | 0.00 | 0.00 | 0.00 | 97 | 1014.6 |
| 20260509110046 | 65 | 138 | 3.5 | 6.1 | 0.00 | 0.00 | 0.00 | 97 | 1015.0 |
| 20260509104548 | 66 | 52 | 3.5 | 9.6 | 0.00 | 0.00 | 0.00 | 97 | 1015.7 |
| 20260509103053 | 67 | 327 | 2.6 | 9.6 | 0.00 | 0.00 | 0.00 | 98 | 1016.4 |
| 20260509101552 | 67 | 329 | 3.5 | 8.7 | 0.00 | 0.00 | 0.00 | 98 | 1016.8 |
| 20260509100051 | 66 | 329 | 7.0 | 12.2 | 0.00 | 0.00 | 0.00 | 99 | 1016.6 |
| 20260509094554 | 65 | 282 | 2.6 | 3.5 | 0.00 | 0.01 | 0.00 | 97 | 1015.7 |
| 20260509093057 | 65 | 344 | 2.6 | 4.3 | 0.00 | 0.01 | 0.00 | 98 | 1015.8 |
| 20260509091554 | 65 | 336 | 0.9 | 3.5 | 0.00 | 0.01 | 0.00 | 97 | 1015.7 |
| 20260509090051 | 66 | 0 | 0.0 | 7.0 | 0.00 | 0.01 | 0.00 | 98 | 1015.3 |
| 20260509084552 | 67 | 5 | 2.6 | 7.8 | 0.00 | 0.01 | 0.00 | 98 | 1015.6 |
| 20260509083055 | 65 | 0 | 0.0 | 1.7 | 0.00 | 0.01 | 0.00 | 97 | 1014.9 |
| 20260509081552 | 66 | 0 | 0.0 | 2.6 | 0.00 | 0.01 | 0.00 | 97 | 1014.9 |
| 20260509080052 | 66 | 97 | 1.7 | 4.3 | 0.00 | 0.01 | 0.00 | 98 | 1015.0 |
| 20260509074558 | 66 | 0 | 0.0 | 1.7 | 0.00 | 0.01 | 0.00 | 97 | 1015.1 |
| 20260509073053 | 66 | 0 | 0.0 | 2.6 | 0.00 | 0.01 | 0.00 | 97 | 1014.9 |
| 20260509071546 | 66 | 0 | 0.0 | 0.0 | 0.00 | 0.01 | 0.00 | 97 | 1015.1 |
| 20260509070054 | 66 | 0 | 0.0 | 0.0 | 0.00 | 0.01 | 0.00 | 97 | 1015.4 |
| 20260509064559 | 67 | 0 | 0.0 | 0.0 | 0.00 | 0.01 | 0.00 | 97 | 1015.0 |
| 20260509063058 | 67 | 0 | 0.0 | 0.0 | 0.00 | 0.01 | 0.00 | 97 | 1015.7 |
| 20260509061559 | 66 | 0 | 0.0 | 1.7 | 0.00 | 0.01 | 0.00 | 97 | 1015.5 |
| 20260509060048 | 67 | 155 | 0.0 | 2.6 | 0.00 | 0.01 | 0.00 | 97 | 1015.4 |
| 20260509054554 | 65 | 0 | 0.0 | 1.7 | 0.00 | 0.01 | 0.00 | 97 | 1015.7 |
| 20260509053049 | 65 | 0 | 0.0 | 0.0 | 0.00 | 0.01 | 0.00 | 96 | 1014.7 |
| 20260509051551 | 66 | 0 | 0.0 | 1.7 | 0.00 | 0.01 | 0.00 | 96 | 1014.7 |
| 20260509050050 | 65 | 147 | 0.9 | 2.6 | 0.00 | 0.01 | 0.00 | 96 | 1014.4 |
| 20260509044544 | 67 | 0 | 0.0 | 2.6 | 0.00 | 0.01 | 0.01 | 97 | 1014.2 |
| 20260509043057 | 66 | 0 | 0.0 | 0.0 | 0.00 | 0.01 | 0.01 | 96 | 1014.0 |
| 20260509041548 | 66 | 0 | 0.0 | 1.7 | 0.00 | 0.01 | 0.01 | 95 | 1014.3 |
| 20260509040050 | 66 | 147 | 1.7 | 2.6 | 0.00 | 0.01 | 0.01 | 96 | 1014.4 |
| 20260509034552 | 66 | 0 | 0.0 | 0.0 | 0.00 | 0.01 | 0.01 | 95 | 1014.3 |
| 20260509033054 | 67 | 0 | 0.0 | 0.0 | 0.00 | 0.01 | 0.01 | 95 | 1014.1 |
| 20260509031552 | 67 | 0 | 0.0 | 0.0 | 0.00 | 0.01 | 0.01 | 95 | 1014.0 |
| 20260509030053 | 67 | 0 | 0.0 | 3.5 | 0.00 | 0.01 | 0.01 | 95 | 1013.8 |
| 20260509024546 | 67 | 147 | 1.7 | 3.5 | 0.00 | 0.01 | 0.01 | 95 | 1013.5 |
| 20260509023045 | 68 | 128 | 1.7 | 3.5 | 0.00 | 0.01 | 0.01 | 94 | 1013.5 |
| 20260509021555 | 68 | 128 | 3.5 | 6.1 | 0.00 | 0.01 | 0.01 | 93 | 1013.4 |
| 20260509020046 | 68 | 111 | 3.5 | 6.1 | 0.00 | 0.01 | 0.01 | 93 | 1013.1 |
| 20260509014548 | 69 | 107 | 3.5 | 6.1 | 0.00 | 0.01 | 0.01 | 92 | 1013.1 |
| 20260509013055 | 70 | 115 | 4.3 | 6.1 | 0.00 | 0.01 | 0.01 | 91 | 1013.1 |
| 20260509011545 | 71 | 111 | 2.6 | 7.0 | 0.00 | 0.01 | 0.01 | 90 | 1013.0 |
| 20260509010046 | 71 | 103 | 3.5 | 7.8 | 0.00 | 0.01 | 0.01 | 89 | 1013.1 |
| 20260509004601 | 71 | 96 | 6.1 | 11.3 | 0.00 | 0.01 | 0.01 | 88 | 1012.7 |
| 20260509003051 | 72 | 115 | 7.0 | 13.0 | 0.00 | 0.01 | 0.01 | 88 | 1012.7 |
| 20260509001551 | 72 | 108 | 7.8 | 11.3 | 0.00 | 0.01 | 0.01 | 87 | 1013.0 |
| 20260509000045 | 72 | 130 | 9.6 | 13.9 | 0.00 | 0.01 | 0.01 | 86 | 1013.0 |
| 20260508234550 | 73 | 113 | 9.6 | 13.0 | 0.00 | 0.01 | 0.01 | 86 | 1013.0 |
| 20260508233051 | 73 | 113 | 9.6 | 13.9 | 0.00 | 0.01 | 0.01 | 86 | 1013.0 |
| 20260508231552 | 72 | 115 | 7.8 | 11.3 | 0.00 | 0.01 | 0.01 | 86 | 1013.0 |
| 20260508230053 | 72 | 123 | 6.1 | 10.4 | 0.00 | 0.01 | 0.01 | 87 | 1012.9 |
| 20260508224553 | 72 | 118 | 7.8 | 10.4 | 0.00 | 0.01 | 0.01 | 86 | 1013.0 |
| 20260508223050 | 73 | 98 | 7.0 | 11.3 | 0.00 | 0.01 | 0.01 | 85 | 1012.9 |
| 20260508221551 | 73 | 125 | 7.8 | 12.2 | 0.00 | 0.01 | 0.01 | 85 | 1013.1 |
| 20260508220052 | 73 | 108 | 8.7 | 13.0 | 0.00 | 0.01 | 0.01 | 84 | 1013.1 |
| 20260508214603 | 73 | 127 | 7.8 | 12.2 | 0.00 | 0.01 | 0.01 | 85 | 1013.3 |